Year,Month,Day,Hour,Minute,Value (Times are PST for temperature in C)
2013,06,29,10,10,21.60
2013,06,29,10,11,21.60
2013,06,29,10,12,21.70
2013,06,29,10,13,21.80
2013,06,29,10,14,21.90
2013,06,29,10,15,21.90
2013,06,29,10,16,22.00
2013,06,29,10,17,22.00
2013,06,29,10,18,22.10
2013,06,29,10,19,22.10
2013,06,29,10,20,22.10
2013,06,29,10,21,22.10
2013,06,29,10,22,22.10
2013,06,29,10,23,22.20
2013,06,29,10,24,22.20
2013,06,29,10,25,22.30
2013,06,29,10,26,22.30
2013,06,29,10,27,22.40
2013,06,29,10,28,22.40
2013,06,29,10,29,22.40
2013,06,29,10,30,22.50
2013,06,29,10,31,22.50
2013,06,29,10,32,22.50
2013,06,29,10,33,22.60
2013,06,29,10,34,22.70
2013,06,29,10,35,22.80
2013,06,29,10,36,22.80
2013,06,29,10,37,22.90
2013,06,29,10,38,22.90
2013,06,29,10,39,23.00
2013,06,29,10,40,23.10
2013,06,29,10,41,23.10
2013,06,29,10,42,23.10
2013,06,29,10,43,23.20
2013,06,29,10,44,23.20
2013,06,29,10,45,23.30
2013,06,29,10,46,23.30
2013,06,29,10,47,23.30
2013,06,29,10,48,23.20
2013,06,29,10,49,23.20
2013,06,29,10,50,23.30
2013,06,29,10,51,23.30
2013,06,29,10,52,23.30
2013,06,29,10,53,23.30
2013,06,29,10,54,23.30
2013,06,29,10,55,23.30
2013,06,29,10,56,23.30
2013,06,29,10,57,23.30
2013,06,29,10,58,23.30
2013,06,29,10,59,23.30
2013,06,29,11,00,23.20
2013,06,29,11,01,23.20
2013,06,29,11,02,23.20
2013,06,29,11,03,23.20
2013,06,29,11,04,23.20
2013,06,29,11,05,23.20
2013,06,29,11,06,23.10
2013,06,29,11,07,23.10
2013,06,29,11,08,23.10
2013,06,29,11,09,23.00
2013,06,29,11,10,22.90
2013,06,29,11,11,22.90
2013,06,29,11,12,22.90
2013,06,29,11,13,22.90
2013,06,29,11,14,22.90
2013,06,29,11,15,22.90
2013,06,29,11,16,22.80
2013,06,29,11,17,22.90
2013,06,29,11,18,22.90
2013,06,29,11,19,22.90
2013,06,29,11,20,22.90
2013,06,29,11,21,22.90
2013,06,29,11,22,22.90
2013,06,29,11,23,22.90
2013,06,29,11,24,22.90
2013,06,29,11,25,22.80
2013,06,29,11,26,22.80
2013,06,29,11,27,22.90
2013,06,29,11,28,22.90
2013,06,29,11,29,22.90
2013,06,29,11,30,22.90
2013,06,29,11,31,22.90
2013,06,29,11,32,22.90
2013,06,29,11,33,22.90
2013,06,29,11,34,23.00
2013,06,29,11,35,23.10
2013,06,29,11,36,23.20
2013,06,29,11,37,23.30
2013,06,29,11,38,23.40
2013,06,29,11,39,23.40
2013,06,29,11,40,23.40
2013,06,29,11,41,23.60
2013,06,29,11,42,23.60
2013,06,29,11,43,23.70
2013,06,29,11,44,23.70
2013,06,29,11,45,23.80
2013,06,29,11,46,23.90
2013,06,29,11,47,23.90
2013,06,29,11,48,23.90
2013,06,29,11,49,23.90
2013,06,29,11,50,23.90
2013,06,29,11,51,23.90
2013,06,29,11,52,23.90
2013,06,29,11,53,24.00
2013,06,29,11,54,24.10
2013,06,29,11,55,24.10
2013,06,29,11,56,24.10
2013,06,29,11,57,24.10
2013,06,29,11,58,24.10
2013,06,29,11,59,24.10
2013,06,29,12,00,24.10
2013,06,29,12,01,24.10
2013,06,29,12,02,24.10
2013,06,29,12,03,24.10
2013,06,29,12,04,24.20
2013,06,29,12,05,24.30
2013,06,29,12,06,24.30
2013,06,29,12,07,24.30
2013,06,29,12,08,24.30
2013,06,29,12,09,24.30
2013,06,29,12,10,24.20
2013,06,29,12,11,24.10
2013,06,29,12,12,24.10
2013,06,29,12,13,24.10
2013,06,29,12,14,24.10
2013,06,29,12,15,24.10
2013,06,29,12,16,24.10
2013,06,29,12,17,24.10
2013,06,29,12,18,24.10
2013,06,29,12,19,24.10
2013,06,29,12,20,24.10
2013,06,29,12,21,24.20
2013,06,29,12,22,24.30
2013,06,29,12,23,24.50
2013,06,29,12,24,24.60
2013,06,29,12,25,24.70
2013,06,29,12,26,24.80
2013,06,29,12,27,24.80
2013,06,29,12,28,24.70
2013,06,29,12,29,24.70
2013,06,29,12,30,24.60
2013,06,29,12,31,24.60
2013,06,29,12,32,24.50
2013,06,29,12,33,24.40
2013,06,29,12,34,24.40
2013,06,29,12,35,24.30
2013,06,29,12,36,24.30
2013,06,29,12,37,24.20
2013,06,29,12,38,24.20
2013,06,29,12,39,24.10
2013,06,29,12,40,24.10
2013,06,29,12,41,24.10
2013,06,29,12,42,24.10
2013,06,29,12,43,24.10
2013,06,29,12,44,24.10
2013,06,29,12,45,24.10
2013,06,29,12,46,24.10
2013,06,29,12,47,24.10
2013,06,29,12,48,24.10
2013,06,29,12,49,24.10
2013,06,29,12,50,24.10
2013,06,29,12,51,24.20
2013,06,29,12,52,24.20
2013,06,29,12,53,24.10
2013,06,29,12,54,24.10
2013,06,29,12,55,24.10
2013,06,29,12,56,24.10
2013,06,29,12,57,24.10
2013,06,29,12,58,24.00
2013,06,29,12,59,23.90
2013,06,29,13,00,23.80
2013,06,29,13,01,23.80
2013,06,29,13,02,23.70
2013,06,29,13,03,23.70
2013,06,29,13,04,23.80
2013,06,29,13,05,23.80
2013,06,29,13,06,23.70
2013,06,29,13,07,23.70
2013,06,29,13,08,23.70
2013,06,29,13,09,23.60
2013,06,29,13,10,23.60
2013,06,29,13,11,23.40
2013,06,29,13,12,23.50
2013,06,29,13,13,23.60
2013,06,29,13,14,23.70
2013,06,29,13,15,23.70
2013,06,29,13,16,23.70
2013,06,29,13,17,23.70
2013,06,29,13,18,23.70
2013,06,29,13,19,23.70
2013,06,29,13,20,23.70
2013,06,29,13,21,23.60
2013,06,29,13,22,23.60
2013,06,29,13,23,23.50
2013,06,29,13,24,23.40
2013,06,29,13,25,23.40
2013,06,29,13,26,23.30
2013,06,29,13,27,23.30
2013,06,29,13,28,23.30
2013,06,29,13,29,23.30
2013,06,29,13,30,23.20
2013,06,29,13,31,23.10
2013,06,29,13,32,23.00
2013,06,29,13,33,22.90
2013,06,29,13,34,22.90
2013,06,29,13,35,23.00
2013,06,29,13,36,23.20
2013,06,29,13,37,23.40
2013,06,29,13,38,23.40
2013,06,29,13,39,23.50
2013,06,29,13,40,23.60
2013,06,29,13,41,23.60
2013,06,29,13,42,23.50
2013,06,29,13,43,23.40
2013,06,29,13,44,23.40
2013,06,29,13,45,23.40
2013,06,29,13,46,23.20
2013,06,29,13,47,23.20
2013,06,29,13,48,23.20
2013,06,29,13,49,23.10
2013,06,29,13,50,23.00
2013,06,29,13,51,22.60
2013,06,29,13,52,22.50
2013,06,29,13,53,22.50
2013,06,29,13,54,22.50
2013,06,29,13,55,22.40
2013,06,29,13,56,22.40
2013,06,29,13,57,22.20
2013,06,29,13,58,22.00
2013,06,29,13,59,22.00
2013,06,29,14,00,22.00
2013,06,29,14,01,21.90
2013,06,29,14,02,22.00
2013,06,29,14,03,22.00
2013,06,29,14,04,22.00
2013,06,29,14,05,22.00
2013,06,29,14,06,22.00
2013,06,29,14,07,22.00
2013,06,29,14,08,22.00
2013,06,29,14,09,22.00
2013,06,29,14,10,22.10
2013,06,29,14,11,22.20
2013,06,29,14,12,22.20
2013,06,29,14,13,22.30
2013,06,29,14,14,22.40
2013,06,29,14,15,22.40
2013,06,29,14,16,22.60
2013,06,29,14,17,22.80
2013,06,29,14,18,22.80
2013,06,29,14,19,22.80
2013,06,29,14,20,22.80
2013,06,29,14,21,22.80
2013,06,29,14,22,22.70
2013,06,29,14,23,22.70
2013,06,29,14,24,22.70
2013,06,29,14,25,22.70
2013,06,29,14,26,22.60
2013,06,29,14,27,22.60
2013,06,29,14,28,22.60
2013,06,29,14,29,22.50
2013,06,29,14,30,22.60
2013,06,29,14,31,22.60
2013,06,29,14,32,22.60
2013,06,29,14,33,22.60
2013,06,29,14,34,22.60
2013,06,29,14,35,22.60
2013,06,29,14,36,22.60
2013,06,29,14,37,22.70
2013,06,29,14,38,22.80
2013,06,29,14,39,22.90
2013,06,29,14,40,22.90
2013,06,29,14,41,23.10
2013,06,29,14,42,23.30
2013,06,29,14,43,23.30
2013,06,29,14,44,23.40
2013,06,29,14,45,23.50
2013,06,29,14,46,23.60
2013,06,29,14,47,23.60
2013,06,29,14,48,23.60
2013,06,29,14,49,23.60
2013,06,29,14,50,23.60
2013,06,29,14,51,23.60
2013,06,29,14,52,23.60
2013,06,29,14,53,23.70
2013,06,29,14,54,23.70
2013,06,29,14,55,23.70
2013,06,29,14,56,23.70
2013,06,29,14,57,23.70
2013,06,29,14,58,23.70
2013,06,29,14,59,23.70
2013,06,29,15,00,23.80
2013,06,29,15,01,23.80
2013,06,29,15,02,23.80
2013,06,29,15,03,23.80
2013,06,29,15,04,23.80
2013,06,29,15,05,23.70
2013,06,29,15,06,23.70
2013,06,29,15,07,23.70
2013,06,29,15,08,23.70
2013,06,29,15,09,23.70
2013,06,29,15,10,23.70
2013,06,29,15,11,23.60
2013,06,29,15,12,23.60
2013,06,29,15,13,23.60
2013,06,29,15,14,23.50
2013,06,29,15,15,23.40
2013,06,29,15,16,23.40
2013,06,29,15,17,23.40
2013,06,29,15,18,23.40
2013,06,29,15,19,23.40
2013,06,29,15,20,23.40
2013,06,29,15,21,23.40
2013,06,29,15,22,23.40
2013,06,29,15,23,23.40
2013,06,29,15,24,23.40
2013,06,29,15,25,23.50
2013,06,29,15,26,23.60
2013,06,29,15,27,23.60
2013,06,29,15,28,23.60
2013,06,29,15,29,23.50
2013,06,29,15,30,23.60
2013,06,29,15,31,23.60
2013,06,29,15,32,23.60
2013,06,29,15,33,23.60
2013,06,29,15,34,23.60
2013,06,29,15,35,23.60
2013,06,29,15,36,23.60
2013,06,29,15,37,23.70
2013,06,29,15,38,23.70
2013,06,29,15,39,23.70
2013,06,29,15,40,23.70
2013,06,29,15,41,23.70
2013,06,29,15,42,23.70
2013,06,29,15,43,23.70
2013,06,29,15,44,23.80
2013,06,29,15,45,23.80
2013,06,29,15,46,23.80
2013,06,29,15,47,23.90
2013,06,29,15,48,24.10
2013,06,29,15,49,24.10
2013,06,29,15,50,24.10
2013,06,29,15,51,24.20
2013,06,29,15,52,24.20
2013,06,29,15,53,24.20
2013,06,29,15,54,24.20
2013,06,29,15,55,24.20
2013,06,29,15,56,24.10
2013,06,29,15,57,24.10
2013,06,29,15,58,24.10
2013,06,29,15,59,24.10
2013,06,29,16,00,24.20
2013,06,29,16,01,24.20
2013,06,29,16,02,24.40
2013,06,29,16,03,24.60
2013,06,29,16,04,24.80
2013,06,29,16,05,25.10
2013,06,29,16,06,25.20
2013,06,29,16,07,25.20
2013,06,29,16,08,25.00
2013,06,29,16,09,25.00
2013,06,29,16,10,25.10
2013,06,29,16,11,25.30
2013,06,29,16,12,25.50
2013,06,29,16,13,25.60
2013,06,29,16,14,25.60
2013,06,29,16,15,25.50
2013,06,29,16,16,25.50
2013,06,29,16,17,25.40
2013,06,29,16,18,25.40
2013,06,29,16,19,25.30
2013,06,29,16,20,25.20
2013,06,29,16,21,25.20
2013,06,29,16,22,25.10
2013,06,29,16,23,25.00
2013,06,29,16,24,24.90
2013,06,29,16,25,24.90
2013,06,29,16,26,24.90
2013,06,29,16,27,24.90
2013,06,29,16,28,24.90
2013,06,29,16,29,24.90
2013,06,29,16,30,24.90
2013,06,29,16,31,24.90
2013,06,29,16,32,24.90
2013,06,29,16,33,24.90
2013,06,29,16,34,24.90
2013,06,29,16,35,25.00
2013,06,29,16,36,25.00
2013,06,29,16,37,25.00
2013,06,29,16,38,24.90
2013,06,29,16,39,24.90
2013,06,29,16,40,24.90
2013,06,29,16,41,24.90
2013,06,29,16,42,24.90
2013,06,29,16,43,24.90
2013,06,29,16,44,24.90
2013,06,29,16,45,25.00
2013,06,29,16,46,25.10
2013,06,29,16,47,25.10
2013,06,29,16,48,25.10
2013,06,29,16,49,25.10
2013,06,29,16,50,25.10
2013,06,29,16,51,25.10
2013,06,29,16,52,25.10
2013,06,29,16,53,25.10
2013,06,29,16,54,25.20
2013,06,29,16,55,25.30
2013,06,29,16,56,25.30
2013,06,29,16,57,25.30
2013,06,29,16,58,25.20
2013,06,29,16,59,25.20
2013,06,29,17,00,25.20
2013,06,29,17,01,25.20
2013,06,29,17,02,25.20
2013,06,29,17,03,25.20
2013,06,29,17,04,25.10
2013,06,29,17,05,25.10
2013,06,29,17,06,25.00
2013,06,29,17,07,24.90
2013,06,29,17,08,24.90
2013,06,29,17,09,24.90
2013,06,29,17,10,24.80
2013,06,29,17,11,24.80
2013,06,29,17,12,24.80
2013,06,29,17,13,24.70
2013,06,29,17,14,24.70
2013,06,29,17,15,24.70
2013,06,29,17,16,24.70
2013,06,29,17,17,24.60
2013,06,29,17,18,24.60
2013,06,29,17,19,24.60
2013,06,29,17,20,24.60
2013,06,29,17,21,24.60
2013,06,29,17,22,24.60
2013,06,29,17,23,24.60
2013,06,29,17,24,24.50
2013,06,29,17,25,24.60
2013,06,29,17,26,24.70
2013,06,29,17,27,24.80
2013,06,29,17,28,24.90
2013,06,29,17,29,24.90
2013,06,29,17,30,24.90
2013,06,29,17,31,25.00
2013,06,29,17,32,25.10
2013,06,29,17,33,25.20
2013,06,29,17,34,25.20
2013,06,29,17,35,25.20
2013,06,29,17,36,25.30
2013,06,29,17,37,25.40
2013,06,29,17,38,25.40
2013,06,29,17,39,25.50
2013,06,29,17,40,25.50
2013,06,29,17,41,25.50
2013,06,29,17,42,25.50
2013,06,29,17,43,25.50
2013,06,29,17,44,25.50
2013,06,29,17,45,25.40
2013,06,29,17,46,25.50
2013,06,29,17,47,25.50
2013,06,29,17,48,25.50
2013,06,29,17,49,25.60
2013,06,29,17,50,25.70
2013,06,29,17,51,25.80
2013,06,29,17,52,25.80
2013,06,29,17,53,25.80
2013,06,29,17,54,25.80
2013,06,29,17,55,25.80
2013,06,29,17,56,25.80
2013,06,29,17,57,25.70
2013,06,29,17,58,25.70
2013,06,29,17,59,25.60
2013,06,29,18,00,25.60
2013,06,29,18,01,25.60
2013,06,29,18,02,25.60
2013,06,29,18,03,25.60
2013,06,29,18,04,25.60
2013,06,29,18,05,25.60
2013,06,29,18,06,25.60
2013,06,29,18,07,25.60
2013,06,29,18,08,25.60
2013,06,29,18,09,25.60
2013,06,29,18,10,25.60
2013,06,29,18,11,25.50
2013,06,29,18,12,25.50
2013,06,29,18,13,25.50
2013,06,29,18,14,25.50
2013,06,29,18,15,25.40
2013,06,29,18,16,25.40
2013,06,29,18,17,25.40
2013,06,29,18,18,25.40
2013,06,29,18,19,25.40
2013,06,29,18,20,25.40
2013,06,29,18,21,25.40
2013,06,29,18,22,25.40
2013,06,29,18,23,25.40
2013,06,29,18,24,25.40
2013,06,29,18,25,25.40
2013,06,29,18,26,25.30
2013,06,29,18,27,25.30
2013,06,29,18,28,25.20
2013,06,29,18,29,25.10
2013,06,29,18,30,25.00
2013,06,29,18,31,24.90
2013,06,29,18,32,24.90
2013,06,29,18,33,24.80
2013,06,29,18,34,24.80
2013,06,29,18,35,24.70
2013,06,29,18,36,24.60
2013,06,29,18,37,24.50
2013,06,29,18,38,24.40
2013,06,29,18,39,24.30
2013,06,29,18,40,24.30
2013,06,29,18,41,24.20
2013,06,29,18,42,24.10
2013,06,29,18,43,24.10
2013,06,29,18,44,24.10
2013,06,29,18,45,24.10
2013,06,29,18,46,24.00
2013,06,29,18,47,23.90
2013,06,29,18,48,23.90
2013,06,29,18,49,23.90
2013,06,29,18,50,23.90
2013,06,29,18,51,23.80
2013,06,29,18,52,23.90
2013,06,29,18,53,23.90
2013,06,29,18,54,23.90
2013,06,29,18,55,23.90
2013,06,29,18,56,23.90
2013,06,29,18,57,23.90
2013,06,29,18,58,23.80
2013,06,29,18,59,23.80
2013,06,29,19,00,23.80
2013,06,29,19,01,23.70
2013,06,29,19,02,23.70
2013,06,29,19,03,23.70
2013,06,29,19,04,23.70
2013,06,29,19,05,23.70
2013,06,29,19,06,23.70
2013,06,29,19,07,23.60
2013,06,29,19,08,23.60
2013,06,29,19,09,23.70
2013,06,29,19,10,23.70
2013,06,29,19,11,23.70
2013,06,29,19,12,23.70
2013,06,29,19,13,23.70
2013,06,29,19,14,23.70
2013,06,29,19,15,23.70
2013,06,29,19,16,23.70
2013,06,29,19,17,23.70
2013,06,29,19,18,23.70
2013,06,29,19,19,23.70
2013,06,29,19,20,23.70
2013,06,29,19,21,23.70
2013,06,29,19,22,23.70
2013,06,29,19,23,23.80
2013,06,29,19,24,23.80
2013,06,29,19,25,23.80
2013,06,29,19,26,23.80
2013,06,29,19,27,23.80
2013,06,29,19,28,23.80
2013,06,29,19,29,23.70
2013,06,29,19,30,23.70
2013,06,29,19,31,23.70
2013,06,29,19,32,23.70
2013,06,29,19,33,23.70
2013,06,29,19,34,23.70
2013,06,29,19,35,23.70
2013,06,29,19,36,23.70
2013,06,29,19,37,23.70
2013,06,29,19,38,23.70
2013,06,29,19,39,23.70
2013,06,29,19,40,23.70
2013,06,29,19,41,23.70
2013,06,29,19,42,23.70
2013,06,29,19,43,23.70
2013,06,29,19,44,23.70
2013,06,29,19,45,23.60
2013,06,29,19,46,23.60
2013,06,29,19,47,23.60
2013,06,29,19,48,23.60
2013,06,29,19,49,23.50
2013,06,29,19,50,23.40
2013,06,29,19,51,23.40
2013,06,29,19,52,23.40
2013,06,29,19,53,23.40
2013,06,29,19,54,23.30
2013,06,29,19,55,23.30
2013,06,29,19,56,23.30
2013,06,29,19,57,23.30
2013,06,29,19,58,23.40
2013,06,29,19,59,23.40
2013,06,29,20,00,23.40
2013,06,29,20,01,23.50
2013,06,29,20,02,23.60
2013,06,29,20,03,23.60
2013,06,29,20,04,23.60
2013,06,29,20,05,23.60
2013,06,29,20,06,23.40
2013,06,29,20,07,23.40
2013,06,29,20,08,23.40
2013,06,29,20,09,23.30
2013,06,29,20,10,23.30
2013,06,29,20,11,23.20
2013,06,29,20,12,23.20
2013,06,29,20,13,23.10
2013,06,29,20,14,23.00
2013,06,29,20,15,22.90
2013,06,29,20,16,22.90
2013,06,29,20,17,22.90
2013,06,29,20,18,22.80
2013,06,29,20,19,22.80
2013,06,29,20,20,22.80
2013,06,29,20,21,22.70
2013,06,29,20,22,22.70
2013,06,29,20,23,22.70
2013,06,29,20,24,22.70
2013,06,29,20,25,22.60
2013,06,29,20,26,22.60
2013,06,29,20,27,22.60
2013,06,29,20,28,22.60
2013,06,29,20,29,22.50
2013,06,29,20,30,22.50
2013,06,29,20,31,22.50
2013,06,29,20,32,22.50
2013,06,29,20,33,22.50
2013,06,29,20,34,22.50
2013,06,29,20,35,22.50
2013,06,29,20,36,22.50
2013,06,29,20,37,22.50
2013,06,29,20,38,22.50
2013,06,29,20,39,22.50
2013,06,29,20,40,22.50
